Location: Friedrichshafen
(47.6598°N, 9.4819°E)
Time: 21:35:27
(UTC+01:00)

ISS - Visible Passes

Search period start: 20 January 2018 00:00
Search period end: 30 January 2018 00:00
Orbit: 402 x 407 km, 51.6° (Epoch: 21 January)

Date Brightness Start Highest point End Pass type
(mag) Time Alt. Az. Time Alt. Az. Time Alt. Az.
25 Jan -1.0 19:45:42 10° SW 19:46:19 14° SW 19:46:19 14° SW visible
26 Jan -2.5 18:53:50 10° SSW 18:56:26 26° SSE 18:56:26 26° SSE visible
27 Jan -1.8 18:02:25 10° S 18:04:27 16° SE 18:06:28 10° E visible
27 Jan -2.1 19:37:15 10° WSW 19:39:08 32° WSW 19:39:08 32° WSW visible
28 Jan -3.5 18:45:01 10° SW 18:48:11 51° SSE 18:49:05 37° E visible
28 Jan -0.3 20:21:32 10° W 20:21:45 11° W 20:21:45 11° W visible
29 Jan -2.7 17:53:00 10° SSW 17:55:55 30° SE 17:58:51 10° E visible
29 Jan -2.9 19:29:01 10° W 19:31:38 48° WNW 19:31:38 48° WNW visible
